GW5441 Weather Reports


time (UTC)temp
F
wind
direction
speed
knots
gust
knots
rain 1hr
in
rain 24hr
in
rain mn
in
humidity
%
barometer
mb
20260505224034 51 0 0.9 2.6 0.00 0.68 0.00 97 1012.7
20260505223534 51 246 0.0 2.6 0.01 0.68 0.00 97 1012.7
20260505223057 51 0 0.0 2.6 0.02 0.68 0.00 97 1012.7
20260505222534 51 246 0.9 2.6 0.03 0.68 0.00 97 1012.7
20260505222034 51 210 0.0 1.7 0.03 0.67 0.00 97 1012.8
20260505221554 51 210 0.9 1.7 0.03 0.67 0.00 97 1012.9
20260505221036 51 0 0.0 1.7 0.03 0.67 0.00 97 1012.9
20260505220537 51 192 0.0 0.9 0.04 0.67 0.00 97 1012.9
20260505220051 51 0 0.0 0.9 0.06 0.67 0.00 97 1013.0
20260505215535 51 0 0.0 0.9 0.07 0.67 0.67 97 1013.1
20260505215035 51 0 0.0 1.7 0.08 0.67 0.67 97 1013.1
20260505214559 51 0 0.0 1.7 0.10 0.67 0.67 97 1013.1
20260505214034 51 227 0.0 1.7 0.11 0.67 0.67 97 1013.2
20260505213535 51 0 0.0 2.6 0.11 0.66 0.66 97 1013.2
20260505213058 51 0 0.0 2.6 0.11 0.66 0.66 97 1013.3
20260505212534 51 232 0.0 2.6 0.11 0.65 0.65 97 1013.3
20260505212035 51 0 0.0 0.9 0.10 0.64 0.64 97 1013.3
20260505211558 51 0 0.0 1.7 0.10 0.64 0.64 97 1013.5
20260505211036 51 195 0.0 2.6 0.09 0.63 0.63 96 1013.4
20260505210536 51 195 0.0 2.6 0.07 0.62 0.62 96 1013.4
20260505210053 51 0 0.0 1.7 0.07 0.61 0.61 97 1013.4
20260505205535 51 0 0.0 0.9 0.06 0.60 0.60 96 1013.4
20260505205035 51 0 0.0 0.9 0.04 0.59 0.59 96 1013.4
20260505204550 51 0 0.0 0.9 0.03 0.57 0.57 96 1013.6
20260505204035 51 0 0.0 1.7 0.03 0.56 0.56 96 1013.5
20260505203535 51 0 0.0 1.7 0.02 0.55 0.55 96 1013.4
20260505203051 51 0 0.0 1.7 0.01 0.55 0.55 96 1013.5
20260505202535 51 0 0.0 1.7 0.01 0.54 0.54 96 1013.5
20260505202038 51 207 0.0 1.7 0.01 0.54 0.54 96 1013.5
20260505201559 51 207 0.0 0.9 0.02 0.54 0.54 96 1013.4
20260505201035 51 0 0.0 1.7 0.03 0.54 0.54 96 1013.4
20260505200535 51 0 0.0 1.7 0.03 0.54 0.54 96 1013.3
20260505200048 51 0 0.0 1.7 0.03 0.54 0.54 96 1013.3
20260505195534 51 253 0.9 1.7 0.03 0.54 0.54 96 1013.3
20260505195035 51 253 0.0 0.9 0.03 0.54 0.54 96 1013.3
20260505194549 51 0 0.0 0.9 0.03 0.53 0.53 96 1013.3
20260505194036 51 253 0.0 1.7 0.04 0.53 0.53 96 1013.3
20260505193535 51 0 0.0 1.7 0.05 0.53 0.53 96 1013.2
20260505193051 51 253 0.9 1.7 0.05 0.53 0.53 96 1013.3
20260505192537 51 253 0.0 1.7 0.04 0.52 0.52 96 1013.3
20260505192035 51 0 0.0 1.7 0.04 0.52 0.52 96 1013.2
20260505191552 51 0 0.0 1.7 0.03 0.51 0.51 96 1013.3
20260505191034 51 0 0.0 1.7 0.03 0.51 0.51 96 1013.1
20260505190535 51 253 0.0 2.6 0.02 0.50 0.50 96 1013.1
20260505190105 51 0 0.0 2.6 0.03 0.50 0.50 96 1013.2
20260505185536 51 253 0.9 2.6 0.03 0.50 0.50 96 1013.2
20260505185035 51 253 0.0 2.6 0.03 0.50 0.50 96 1013.1
20260505184605 51 0 0.0 2.6 0.02 0.48 0.48 96 1013.2
20260505184036 51 253 1.7 2.6 0.03 0.48 0.48 96 1013.3
20260505183539 51 265 0.0 3.5 0.02 0.48 0.48 96 1013.2
20260505183054 51 0 0.0 3.5 0.02 0.48 0.48 96 1013.2
20260505182536 51 257 1.7 3.5 0.03 0.48 0.48 96 1013.2
20260505182034 51 244 0.0 2.6 0.03 0.48 0.48 96 1013.2
20260505181547 51 258 0.0 2.6 0.03 0.48 0.48 96 1013.1
20260505181039 51 258 0.9 2.6 0.04 0.48 0.48 96 1013.1
20260505180538 51 0 0.0 1.7 0.04 0.48 0.48 96 1013.0
20260505180052 51 258 0.9 1.7 0.03 0.47 0.47 96 1013.0
20260505175535 51 257 0.0 2.6 0.03 0.47 0.47 96 1013.1
20260505175035 51 0 0.0 3.5 0.03 0.46 0.46 96 1013.2
20260505174544 51 270 1.7 3.5 0.03 0.46 0.46 96 1013.2
20260505174035 52 256 0.9 2.6 0.03 0.45 0.45 96 1013.1
20260505173534 51 225 0.9 2.6 0.03 0.45 0.45 96 1013.1
20260505173046 52 231 0.9 2.6 0.03 0.45 0.45 96 1013.2
20260505172534 51 269 0.9 2.6 0.02 0.44 0.44 95 1013.1
20260505172033 51 265 0.9 2.6 0.01 0.44 0.44 96 1013.1
20260505171544 51 263 0.0 2.6 0.01 0.44 0.44 95 1013.2
20260505171033 52 0 0.0 2.6 0.00 0.43 0.43 95 1013.2
20260505170534 52 0 0.9 2.6 0.00 0.43 0.43 95 1013.2
20260505170057 51 243 0.9 2.6 0.01 0.43 0.43 95 1013.2
20260505165535 51 0 0.0 1.7 0.01 0.43 0.43 95 1013.2
20260505165034 51 0 0.0 0.9 0.00 0.42 0.42 95 1013.2
20260505164546 51 0 0.0 0.9 0.00 0.42 0.42 95 1013.3
20260505164035 52 0 0.0 0.9 0.00 0.42 0.42 95 1013.3
20260505163533 51 0 0.0 0.9 0.01 0.42 0.42 95 1013.3
20260505163044 51 318 0.0 1.7 0.01 0.42 0.42 95 1013.4
20260505162534 52 0 0.0 2.6 0.01 0.42 0.42 95 1013.3
20260505162033 52 346 0.0 2.6 0.01 0.42 0.42 95 1013.2
20260505161545 52 0 0.0 1.7 0.01 0.42 0.42 96 1013.2
20260505161034 52 0 0.0 1.7 0.01 0.42 0.42 96 1013.3
20260505160536 52 269 0.0 1.7 0.01 0.42 0.42 95 1013.3
20260505153102 52 0 0.9 2.6 0.00 0.40 0.40 95 1013.5
20260505152532 52 225 0.9 3.5 0.00 0.40 0.40 95 1013.4
20260505152033 52 225 0.9 3.5 0.00 0.40 0.40 95 1013.5
20260505151547 52 206 0.0 1.7 0.00 0.40 0.40 95 1013.5
20260505151033 52 0 0.0 1.7 0.00 0.40 0.40 95 1013.5
20260505150539 52 206 0.0 1.7 0.00 0.40 0.40 95 1013.5
20260505150108 52 0 0.0 1.7 0.00 0.40 0.40 95 1013.6
20260505140535 52 0 0.0 1.7 0.01 0.40 0.40 93 1014.0
20260505140104 52 142 0.0 1.7 0.01 0.40 0.40 93 1013.8
20260505125035 53 0 0.0 0.9 0.00 0.39 0.39 91 1014.1
20260505124607 53 0 0.0 0.9 0.00 0.39 0.39 91 1014.2
20260505124034 53 0 0.0 0.9 0.00 0.39 0.39 91 1014.2
20260505123534 53 0 0.0 0.9 0.00 0.39 0.39 91 1014.1
20260505123112 53 0 0.0 1.7 0.00 0.39 0.39 91 1014.2
20260505122534 53 0 0.0 1.7 0.00 0.39 0.39 91 1014.1
20260505122036 53 285 0.0 1.7 0.00 0.39 0.39 91 1014.2
20260505121552 53 0 0.0 1.7 0.00 0.39 0.39 90 1014.1
20260505121038 53 42 0.0 1.7 0.00 0.39 0.39 93 1014.2
20260505120535 53 0 0.0 1.7 0.00 0.39 0.39 93 1014.0
20260505120054 53 0 0.0 1.7 0.00 0.38 0.38 92 1014.1
20260505115535 52 0 0.0 1.7 0.00 0.38 0.38 92 1014.2
20260505115034 52 0 0.0 1.7 0.00 0.38 0.38 92 1014.2
20260505114558 52 0 0.0 2.6 0.00 0.38 0.38 92 1014.2
20260505114035 52 0 0.0 3.5 0.00 0.38 0.38 92 1014.2
20260505113535 52 309 0.0 3.5 0.00 0.38 0.38 92 1014.3
20260505113050 52 0 0.9 3.5 0.00 0.38 0.38 92 1014.3
20260505112535 52 263 0.0 3.5 0.00 0.38 0.38 92 1014.4
20260505112035 53 288 0.9 5.2 0.01 0.38 0.38 92 1014.4
20260505111546 53 308 0.9 5.2 0.01 0.38 0.38 92 1014.4
20260505111035 53 273 1.7 7.0 0.01 0.38 0.38 93 1014.4
20260505110535 53 265 1.7 7.0 0.01 0.38 0.38 94 1014.4
20260505102035 52 277 0.0 4.3 0.00 0.37 0.37 94 1014.9
20260505101549 52 294 0.9 4.3 0.00 0.37 0.37 94 1014.8
20260505101035 52 0 0.0 5.2 0.00 0.37 0.37 94 1014.7
20260505100536 52 247 0.9 5.2 0.00 0.37 0.37 94 1014.7
20260505100047 52 267 0.9 4.3 0.01 0.37 0.37 95 1014.6
20260505095535 52 254 1.7 4.3 0.01 0.37 0.37 95 1014.5
20260505095034 52 245 1.7 3.5 0.01 0.37 0.37 95 1014.4
20260505094548 52 272 0.0 4.3 0.02 0.37 0.37 95 1014.4
20260505094035 52 294 0.9 5.2 0.02 0.37 0.37 95 1014.4
20260505093535 52 282 0.9 5.2 0.03 0.37 0.37 95 1014.5
20260505093051 52 0 0.9 5.2 0.03 0.37 0.37 95 1014.5
20260505092535 51 0 0.9 5.2 0.03 0.37 0.37 95 1014.4
20260505092036 51 0 1.7 5.2 0.03 0.36 0.36 95 1014.5
20260505091549 51 0 0.0 3.5 0.04 0.36 0.36 95 1014.5
20260505091035 51 285 0.9 3.5 0.05 0.36 0.36 95 1014.5
20260505090535 51 331 0.0 5.2 0.07 0.36 0.36 95 1014.5
20260505090058 51 283 0.9 5.2 0.07 0.35 0.35 95 1014.5
20260505085535 51 247 0.9 4.3 0.09 0.35 0.35 95 1014.5
20260505085035 51 310 0.9 5.2 0.11 0.35 0.35 95 1014.4
20260505084544 51 264 0.9 6.1 0.12 0.34 0.34 95 1014.4
20260505084034 51 288 1.7 6.1 0.14 0.34 0.34 95 1014.5
20260505083536 51 298 1.7 7.0 0.14 0.33 0.33 95 1014.5
20260505083106 51 320 1.7 7.0 0.16 0.33 0.33 94 1014.6
20260505082535 51 313 2.6 7.0 0.18 0.33 0.33 94 1014.6
20260505082036 51 279 1.7 4.3 0.18 0.32 0.32 94 1014.6
20260505081548 51 286 0.9 4.3 0.18 0.31 0.31 94 1014.6
20260505081036 51 0 0.0 4.3 0.17 0.29 0.29 94 1014.6
20260505080535 51 267 1.7 4.3 0.17 0.29 0.29 94 1014.6
20260505080052 51 233 1.7 6.1 0.16 0.27 0.27 94 1014.6
20260505075533 51 243 0.9 6.1 0.14 0.25 0.25 93 1014.7
20260505075034 51 222 1.7 5.2 0.14 0.23 0.23 93 1014.6
20260505074549 51 246 1.7 4.3 0.13 0.22 0.22 93 1014.6
20260505074036 51 261 0.9 2.6 0.12 0.20 0.20 93 1014.5
20260505073532 51 0 0.9 2.6 0.11 0.18 0.18 93 1014.6
20260505073055 51 0 0.9 3.5 0.10 0.16 0.16 93 1014.4
20260505072535 51 282 0.0 3.5 0.08 0.14 0.14 92 1014.4
20260505072035 51 250 0.0 2.6 0.08 0.14 0.14 93 1014.4
20260505071545 51 280 0.0 1.7 0.07 0.13 0.13 92 1014.4
20260505071034 51 284 0.0 1.7 0.07 0.12 0.12 92 1014.4
20260505070536 51 215 0.9 3.5 0.06 0.11 0.11 92 1014.5
20260505070057 51 269 0.9 3.5 0.06 0.10 0.10 91 1014.4
20260505065535 51 0 0.0 1.7 0.06 0.10 0.10 91 1014.3
20260505065036 52 0 0.0 2.6 0.05 0.09 0.09 91 1014.4
20260505064548 52 284 0.0 2.6 0.04 0.08 0.08 91 1014.5
20260505064035 52 302 0.0 2.6 0.04 0.07 0.07 90 1014.3
20260505063534 52 333 0.0 3.5 0.03 0.07 0.07 90 1014.3
20260505063051 52 282 0.9 8.7 0.03 0.06 0.06 89 1014.4
20260505062535 52 296 0.9 8.7 0.03 0.06 0.06 89 1014.3
20260505062035 52 260 3.5 7.8 0.02 0.05 0.05 88 1014.3
20260505061550 52 269 0.9 6.1 0.03 0.05 0.05 88 1014.3
20260505061035 52 257 0.9 4.3 0.02 0.04 0.04 88 1014.1
20260505060535 52 326 0.0 7.0 0.03 0.04 0.04 88 1014.1
20260505060051 52 0 0.0 7.0 0.03 0.03 0.03 88 1014.1
20260505055535 52 336 0.9 6.1 0.03 0.03 0.03 88 1014.1
20260505055038 52 355 0.9 7.0 0.03 0.03 0.03 86 1014.1
20260505054557 53 314 1.7 7.0 0.03 0.03 0.03 86 1013.9
20260505054037 53 339 0.0 2.6 0.03 0.03 0.03 86 1013.9
20260505053541 53 0 0.9 3.5 0.03 0.03 0.03 87 1013.8
20260505053053 53 0 0.9 3.5 0.03 0.03 0.03 86 1013.7
20260505052536 53 281 0.9 3.5 0.03 0.03 0.03 85 1013.7
20260505052036 54 319 0.0 3.5 0.03 0.03 0.03 85 1013.7
20260505051547 54 319 0.0 3.5 0.02 0.02 0.02 83 1013.7
20260505051038 54 280 0.9 5.2 0.02 0.02 0.02 82 1013.7
20260505050538 54 284 0.9 5.2 0.01 0.01 0.01 80 1013.7
20260505050125 55 331 0.9 5.2 0.00 0.00 0.00 80 1013.6
20260505041601 55 0 0.0 1.7 0.00 0.00 0.00 76 1013.3
20260505041035 55 0 0.0 1.7 0.00 0.00 0.00 76 1013.3
20260505040535 55 0 0.9 1.7 0.00 0.00 0.00 76 1013.3
20260505040054 55 0 0.0 1.7 0.00 0.00 0.00 73 1013.3
20260505035535 55 337 0.0 1.7 0.00 0.00 0.00 74 1013.1
20260505035035 55 0 0.0 2.6 0.00 0.00 0.00 73 1013.3
20260505034548 55 0 0.0 2.6 0.00 0.00 0.00 72 1013.4
20260505034035 56 0 0.0 2.6 0.00 0.00 0.00 71 1013.4
20260505033536 56 0 0.0 2.6 0.00 0.00 0.00 71 1013.4
20260505033047 56 0 0.0 2.6 0.00 0.00 0.00 70 1013.5
20260505032535 56 257 0.9 2.6 0.00 0.00 0.00 69 1013.5
20260505032034 56 0 0.0 1.7 0.00 0.00 0.00 68 1013.3
20260505031550 56 340 0.0 1.7 0.00 0.00 0.00 68 1013.3
20260505031036 56 346 0.9 1.7 0.00 0.00 0.00 69 1013.6
20260505030535 56 0 0.0 1.7 0.00 0.00 0.00 68 1013.7
20260505030052 56 0 0.0 1.7 0.00 0.00 0.00 68 1013.6
20260505025536 56 0 0.0 1.7 0.00 0.00 0.00 67 1013.7
20260505025036 56 0 0.9 1.7 0.00 0.00 0.00 68 1013.6
20260505024550 56 5 0.9 1.7 0.00 0.00 0.00 68 1013.6
20260505024035 56 0 0.0 1.7 0.00 0.00 0.00 67 1013.8
20260505023537 56 0 0.0 2.6 0.00 0.00 0.00 67 1013.9
20260505023051 56 0 0.0 2.6 0.00 0.00 0.00 67 1013.9
20260505022535 56 9 0.9 2.6 0.00 0.00 0.00 67 1013.8
20260505022035 56 17 0.9 2.6 0.00 0.00 0.00 67 1013.9
20260505021546 57 11 0.9 1.7 0.00 0.00 0.00 67 1014.0
20260505021035 57 352 0.9 1.7 0.00 0.00 0.00 67 1014.1
20260505020535 56 342 0.0 1.7 0.00 0.00 0.00 66 1014.2
20260505020044 56 334 0.0 1.7 0.00 0.00 0.00 67 1014.2
20260505015535 56 0 0.0 1.7 0.00 0.00 0.00 67 1014.3
20260505015035 56 317 0.0 0.9 0.00 0.00 0.00 67 1014.2
20260505014603 56 317 0.0 1.7 0.00 0.00 0.00 67 1014.3
20260505014038 56 0 0.0 1.7 0.00 0.00 0.00 67 1014.2
20260505013533 56 17 0.9 1.7 0.00 0.00 0.00 67 1014.2
20260505013051 56 348 0.9 1.7 0.00 0.00 0.00 67 1014.4
20260505012533 56 0 0.0 2.6 0.00 0.00 0.00 66 1014.5
20260505012034 56 0 0.9 2.6 0.00 0.00 0.00 66 1014.6
20260505011549 56 15 1.7 2.6 0.00 0.00 0.00 66 1014.6
20260505011034 56 9 1.7 2.6 0.00 0.00 0.00 66 1014.6
20260505010535 57 15 1.7 3.5 0.00 0.00 0.00 65 1014.7
20260505010049 57 355 1.7 3.5 0.00 0.00 0.00 65 1014.8
20260505005535 57 9 1.7 3.5 0.00 0.00 0.00 65 1014.7
20260505005035 57 54 1.7 3.5 0.00 0.00 0.00 65 1014.9
20260505004547 57 59 1.7 3.5 0.00 0.00 0.00 65 1015.1
20260505004033 57 56 0.9 2.6 0.00 0.00 0.00 66 1015.1
20260505003535 57 44 1.7 2.6 0.00 0.00 0.00 65 1015.1
20260505003050 57 21 1.7 2.6 0.00 0.00 0.00 65 1015.3
20260505002538 57 342 0.9 2.6 0.00 0.00 0.00 65 1015.4
20260505002034 57 76 0.9 2.6 0.00 0.00 0.00 64 1015.4
20260505001602 57 51 0.9 2.6 0.00 0.00 0.00 64 1015.5
20260505001033 58 49 0.9 2.6 0.00 0.00 0.00 64 1015.5
20260505000536 58 52 0.9 1.7 0.00 0.00 0.00 64 1015.7
20260505000113 58 42 0.9 1.7 0.00 0.00 0.00 64 1015.7
20260504235533 58 42 0.9 1.7 0.00 0.00 0.00 63 1016.0
20260504235037 58 51 0.9 3.5 0.00 0.00 0.00 63 1016.0
20260504234607 58 0 0.9 3.5 0.00 0.00 0.00 62 1016.0
20260504234035 58 36 1.7 3.5 0.00 0.00 0.00 63 1016.0
20260504233536 58 22 0.0 2.6 0.00 0.00 0.00 63 1016.1
20260504233050 58 49 0.9 2.6 0.00 0.00 0.00 63 1016.1
20260504232536 58 91 0.9 3.5 0.00 0.00 0.00 62 1016.2
20260504232033 58 42 1.7 3.5 0.00 0.00 0.00 63 1016.1
20260504231553 58 44 1.7 2.6 0.00 0.00 0.00 62 1016.2
20260504231034 58 26 0.9 1.7 0.00 0.00 0.00 62 1016.3
20260504230535 59 0 0.0 1.7 0.00 0.00 0.00 62 1016.4
20260504230053 59 0 0.0 1.7 0.00 0.00 0.00 59 1016.4
20260504225538 59 0 0.0 1.7 0.00 0.00 0.00 60 1016.5
20260504225035 59 350 0.0 1.7 0.00 0.00 0.00 61 1016.5
20260504224605 59 35 0.0 2.6 0.00 0.00 0.00 61 1016.5